• în Republica Moldova
  • Lista ţărilor
  • Pe 7 zile
  • Temperatura apei
  • Hartă satelitară
  • Meteo pe hartă
  • Widget-uri
  • user-avatar
    Intrare

    Meteo pe oră la Eisenstadt

    Astăzi, 29 Aprilie, Sâmbătă

    Timp Temperatura Precipitaţii Vânt Presiune Umiditate
    00:00 0°C° 0 mm 4 m/s 720 mmHg 90%
    01:00 0°C° 0 mm 3 m/s 720 mmHg 91%
    02:00 0°C° 0 mm 3 m/s 721 mmHg 91%
    03:00 -1°C° 0 mm 3 m/s 721 mmHg 91%
    04:00 -1°C° 0 mm 2 m/s 721 mmHg 92%
    05:00 +1°C° 0 mm 3 m/s 722 mmHg 88%
    06:00 +2°C° 0 mm 3 m/s 722 mmHg 84%
    07:00 +5°C° 0 mm 2 m/s 723 mmHg 79%
    08:00 +6°C° 0 mm 2 m/s 723 mmHg 73%
    09:00 +7°C° 0 mm 3 m/s 723 mmHg 67%
    10:00 +9°C° 0 mm 3 m/s 723 mmHg 61%
    11:00 +9°C° 0 mm 3 m/s 723 mmHg 59%
    12:00 +10°C° 0 mm 3 m/s 723 mmHg 56%
    13:00 +11°C° 0 mm 3 m/s 723 mmHg 54%
    14:00 +11°C° 0,1 mm 3 m/s 722 mmHg 55%
    15:00 +11°C° 0,1 mm 3 m/s 722 mmHg 55%
    16:00 +11°C° 0,1 mm 3 m/s 722 mmHg 56%
    17:00 +8°C° 0 mm 2 m/s 722 mmHg 65%
    18:00 +6°C° 0 mm 2 m/s 722 mmHg 73%
    19:00 +5°C° 0 mm 1 m/s 722 mmHg 82%
    20:00 +4°C° 0 mm 1 m/s 722 mmHg 83%
    21:00 +4°C° 0 mm 1 m/s 722 mmHg 84%
    22:00 +3°C° 0 mm 1 m/s 722 mmHg 85%
    23:00 +2°C° 0 mm 1 m/s 722 mmHg 85%

    Mâine, 30 Aprilie, Duminică

    Timp Temperatura Precipitaţii Vânt Presiune Umiditate
    00:00 +2°C° 0 mm 1 m/s 722 mmHg 85%
    01:00 +2°C° 0 mm 1 m/s 722 mmHg 86%
    02:00 +1°C° 0 mm 1 m/s 722 mmHg 86%
    03:00 +1°C° 0 mm 1 m/s 722 mmHg 87%
    04:00 0°C° 0 mm 0 m/s 722 mmHg 87%
    05:00 +2°C° 0 mm 0 m/s 723 mmHg 81%
    06:00 +5°C° 0 mm 0 m/s 723 mmHg 74%
    07:00 +7°C° 0 mm 0 m/s 724 mmHg 67%
    08:00 +10°C° 0 mm 1 m/s 724 mmHg 63%
    09:00 +11°C° 0 mm 1 m/s 724 mmHg 59%
    10:00 +12°C° 0 mm 2 m/s 724 mmHg 54%
    11:00 +13°C° 0 mm 2 m/s 723 mmHg 53%
    12:00 +13°C° 0 mm 3 m/s 723 mmHg 51%
    13:00 +13°C° 0 mm 3 m/s 723 mmHg 50%
    14:00 +13°C° 0 mm 3 m/s 722 mmHg 52%
    15:00 +13°C° 0 mm 3 m/s 722 mmHg 54%
    16:00 +13°C° 0 mm 3 m/s 722 mmHg 56%
    17:00 +11°C° 0 mm 3 m/s 721 mmHg 64%
    18:00 +9°C° 0 mm 3 m/s 721 mmHg 73%
    19:00 +8°C° 0 mm 3 m/s 721 mmHg 82%
    20:00 +7°C° 0 mm 3 m/s 721 mmHg 81%
    21:00 +7°C° 0 mm 3 m/s 721 mmHg 81%
    22:00 +7°C° 0 mm 3 m/s 722 mmHg 81%
    23:00 +5°C° 0 mm 3 m/s 721 mmHg 82%

    Poimâine, 1 Mai, Luni

    Timp Temperatura Precipitaţii Vânt Presiune Umiditate
    00:00 +5°C° 0 mm 3 m/s 721 mmHg 83%
    01:00 +6°C° 0 mm 2 m/s 721 mmHg 85%
    02:00 +5°C° 0 mm 2 m/s 720 mmHg 86%
    03:00 +5°C° 0 mm 2 m/s 720 mmHg 88%
    04:00 +4°C° 0 mm 2 m/s 720 mmHg 90%
    05:00 +4°C° 0 mm 3 m/s 720 mmHg 87%
    06:00 +5°C° 0 mm 3 m/s 720 mmHg 84%
    07:00 +6°C° 0 mm 4 m/s 720 mmHg 81%
    08:00 +8°C° 0 mm 4 m/s 720 mmHg 76%
    09:00 +11°C° 0 mm 4 m/s 720 mmHg 71%
    10:00 +12°C° 0 mm 5 m/s 721 mmHg 66%
    11:00 +13°C° 0 mm 4 m/s 720 mmHg 65%
    12:00 +13°C° 0 mm 4 m/s 720 mmHg 64%
    13:00 +14°C° 0 mm 4 m/s 720 mmHg 64%
    14:00 +14°C° 0 mm 4 m/s 720 mmHg 64%
    15:00 +14°C° 0 mm 4 m/s 720 mmHg 65%
    16:00 +16°C° 0 mm 3 m/s 719 mmHg 66%
    17:00 +13°C° 0 mm 3 m/s 719 mmHg 73%
    18:00 +12°C° 0 mm 2 m/s 719 mmHg 80%
    19:00 +10°C° 0 mm 2 m/s 719 mmHg 87%
    20:00 +9°C° 0 mm 2 m/s 720 mmHg 88%
    21:00 +8°C° 0 mm 2 m/s 720 mmHg 89%
    22:00 +9°C° 0 mm 1 m/s 720 mmHg 91%
    23:00 +9°C° 0,1 mm 1 m/s 720 mmHg 91%

    2 Mai, Marţi

    Timp Temperatura Precipitaţii Vânt Presiune Umiditate
    00:00 +8°C° 0,1 mm 1 m/s 720 mmHg 92%
    01:00 +8°C° 0,1 mm 1 m/s 721 mmHg 92%
    02:00 +7°C° 0,1 mm 2 m/s 721 mmHg 92%
    03:00 +7°C° 0,1 mm 2 m/s 721 mmHg 92%
    04:00 +7°C° 0,1 mm 2 m/s 721 mmHg 92%
    05:00 +7°C° 0 mm 2 m/s 722 mmHg 90%
    06:00 +8°C° 0 mm 3 m/s 722 mmHg 88%
    07:00 +8°C° 0 mm 3 m/s 722 mmHg 86%
    08:00 +9°C° 0 mm 3 m/s 723 mmHg 82%
    09:00 +10°C° 0 mm 3 m/s 723 mmHg 79%
    10:00 +11°C° 0 mm 3 m/s 723 mmHg 75%
    11:00 +13°C° 0 mm 2 m/s 723 mmHg 71%
    12:00 +14°C° 0 mm 2 m/s 723 mmHg 67%
    13:00 +15°C° 0 mm 2 m/s 723 mmHg 64%
    14:00 +16°C° 0 mm 1 m/s 723 mmHg 63%
    15:00 +16°C° 0 mm 1 m/s 723 mmHg 62%
    16:00 +16°C° 0 mm 1 m/s 723 mmHg 62%
    17:00 +14°C° 0 mm 1 m/s 723 mmHg 69%
    18:00 +13°C° 0 mm 1 m/s 723 mmHg 76%
    19:00 +11°C° 0 mm 1 m/s 722 mmHg 83%
    20:00 +10°C° 0 mm 1 m/s 723 mmHg 85%
    21:00 +9°C° 0 mm 1 m/s 723 mmHg 86%
    22:00 +9°C° 0 mm 1 m/s 723 mmHg 88%
    23:00 +8°C° 0 mm 1 m/s 723 mmHg 88%

    3 Mai, Miercuri

    Timp Temperatura Precipitaţii Vânt Presiune Umiditate
    00:00 +8°C° 0 mm 1 m/s 722 mmHg 88%
    01:00 +7°C° 0 mm 1 m/s 722 mmHg 89%
    02:00 +8°C° 0 mm 1 m/s 722 mmHg 88%
    03:00 +8°C° 0 mm 1 m/s 722 mmHg 88%
    04:00 +8°C° 0 mm 1 m/s 722 mmHg 88%
    05:00 +9°C° 0 mm 1 m/s 722 mmHg 85%
    06:00 +11°C° 0 mm 1 m/s 722 mmHg 81%
    07:00 +13°C° 0 mm 1 m/s 722 mmHg 77%
    08:00 +14°C° 0 mm 1 m/s 722 mmHg 73%
    09:00 +15°C° 0 mm 1 m/s 722 mmHg 69%
    10:00 +17°C° 0 mm 2 m/s 722 mmHg 65%
    11:00 +18°C° 0 mm 2 m/s 721 mmHg 62%
    12:00 +19°C° 0 mm 3 m/s 721 mmHg 58%
    13:00 +20°C° 0 mm 3 m/s 721 mmHg 55%
    14:00 +20°C° 0 mm 3 m/s 721 mmHg 56%
    15:00 +20°C° 0 mm 3 m/s 720 mmHg 57%
    16:00 +19°C° 0 mm 4 m/s 720 mmHg 58%
    17:00 +18°C° 0 mm 3 m/s 720 mmHg 65%
    18:00 +16°C° 0 mm 3 m/s 719 mmHg 72%
    19:00 +14°C° 0 mm 2 m/s 719 mmHg 79%
    20:00 +13°C° 0 mm 2 m/s 719 mmHg 80%
    21:00 +10°C° 0 mm 2 m/s 719 mmHg 80%
    22:00 +9°C° 0 mm 2 m/s 719 mmHg 81%
    23:00 +9°C° 0 mm 2 m/s 719 mmHg 83%

    4 Mai, Joi

    Timp Temperatura Precipitaţii Vânt Presiune Umiditate
    00:00 +8°C° 0 mm 2 m/s 719 mmHg 84%
    01:00 +8°C° 0 mm 2 m/s 719 mmHg 86%
    02:00 +7°C° 0 mm 2 m/s 719 mmHg 88%
    03:00 +8°C° 0 mm 1 m/s 719 mmHg 89%
    04:00 +7°C° 0 mm 1 m/s 719 mmHg 91%
    05:00 +9°C° 0 mm 1 m/s 719 mmHg 86%
    06:00 +11°C° 0 mm 1 m/s 719 mmHg 81%
    07:00 +12°C° 0 mm 1 m/s 720 mmHg 76%
    08:00 +14°C° 0 mm 2 m/s 720 mmHg 72%
    09:00 +15°C° 0 mm 2 m/s 720 mmHg 69%
    10:00 +16°C° 0 mm 2 m/s 720 mmHg 65%
    11:00 +16°C° 0,3 mm 2 m/s 720 mmHg 67%
    12:00 +16°C° 0,3 mm 2 m/s 720 mmHg 68%
    13:00 +17°C° 0,3 mm 2 m/s 719 mmHg 70%
    14:00 +16°C° 0,3 mm 2 m/s 719 mmHg 71%
    15:00 +16°C° 0,3 mm 2 m/s 719 mmHg 72%
    16:00 +16°C° 0,3 mm 2 m/s 719 mmHg 74%
    17:00 +15°C° 0,3 mm 2 m/s 718 mmHg 79%
    18:00 +13°C° 0,3 mm 2 m/s 718 mmHg 84%
    19:00 +12°C° 0,3 mm 2 m/s 718 mmHg 90%
    20:00 +10°C° 0 mm 2 m/s 719 mmHg 91%
    21:00 +9°C° 0 mm 2 m/s 719 mmHg 92%
    22:00 +8°C° 0 mm 2 m/s 719 mmHg 93%
    23:00 +8°C° 0 mm 2 m/s 719 mmHg 93%
    Arată mai mult